Probability
0 0 0 1 0 0 0 0 0 0 0 0 0 0 0 0 0 0 0 1 7 16 16 10 10 11 9 8 8 8 6 4 3 3 3 3 2 2 3 3 2 1 0 0 0 1 1 1 0
0 0 1 2 1 0 0 0 0 0 0 0 0 0 0 0 0 0 1 3 10 18 18 12 13 14 12 10 10 9 7 4 3 3 3 3 3 3 3 3 2 1 0 0 1 2 2 2 1
0 2 4 3 1 0 0 0 0 0 0 0 0 0 0 1 1 2 4 8 16 22 21 16 16 18 17 14 12 10 8 5 3 3 4 4 4 4 4 3 2 1 0 0 1 2 3 2 1
2 4 5 2 0 0 0 0 0 0 0 1 0 0 2 5 6 6 9 16 23 27 25 20 19 21 21 18 14 10 8 6 4 4 5 6 6 6 4 3 2 1 0 0 0 2 3 3 2
5 5 3 1 0 0 0 0 0 0 0 1 1 1 5 10 11 11 16 22 26 28 27 23 21 21 22 21 17 12 8 6 5 6 7 7 7 5 4 3 2 1 0 0 1 2 2 2 2
6 4 2 0 0 0 0 0 0 0 1 1 1 4 9 14 16 18 22 25 25 26 26 25 22 22 22 20 17 13 10 8 7 7 8 8 6 4 3 4 3 1 0 1 2 2 1 1 1
4 2 1 0 0 0 0 0 0 0 1 2 2 6 12 16 20 24 26 27 25 25 25 24 22 20 19 18 16 15 13 11 9 8 8 8 6 4 4 5 5 3 1 1 3 2 1 0 0
1 1 0 0 0 0 0 0 0 1 2 4 4 7 13 21 27 30 31 29 27 26 25 24 20 17 15 15 16 16 16 14 11 8 6 5 4 3 3 4 4 3 2 3 3 2 1 0 0
0 0 0 0 0 0 0 0 0 1 3 6 8 9 15 26 34 35 33 32 29 27 25 23 21 18 15 15 16 17 16 14 11 7 3 2 2 3 3 2 2 1 2 2 2 2 1 0 0
0 0 0 0 0 0 0 0 0 0 2 5 9 13 17 26 33 35 34 33 30 27 24 23 23 20 18 16 17 16 15 14 13 8 3 2 3 3 2 1 0 0 1 1 1 1 0 0 0
0 0 0 0 0 0 0 0 0 0 0 2 7 14 19 25 30 31 32 33 32 28 26 24 23 20 18 16 15 15 14 14 13 10 5 3 4 5 3 1 0 0 0 0 0 0 0 0 0
0 0 0 0 0 0 0 0 0 0 0 1 6 13 21 28 29 29 30 31 30 28 27 25 22 20 17 15 14 14 14 12 11 9 6 4 4 5 4 2 1 1 2 1 1 1 0 0 0
0 0 0 0 0 0 0 0 0 0 1 3 7 12 20 27 29 29 30 28 26 26 25 23 20 19 17 16 15 14 13 10 8 6 5 4 4 3 2 2 2 3 3 2 2 1 0 0 0
0 0 0 0 0 0 0 0 0 0 2 6 9 10 15 22 27 29 29 26 24 23 23 21 17 15 17 17 16 14 12 9 6 4 3 3 3 2 1 1 2 3 2 1 1 1 0 0 0
0 0 0 0 0 0 0 0 0 1 4 7 9 8 10 17 23 26 26 24 22 21 21 19 15 13 15 17 15 13 11 8 4 3 3 3 3 2 1 0 1 1 1 1 0 0 0 0 0
0 0 0 0 0 0 0 0 0 1 4 7 7 8 9 14 19 22 21 20 19 18 18 16 14 13 14 15 13 10 8 6 5 4 3 3 3 2 1 0 0 0 0 0 0 0 0 0 0
0 0 0 0 0 0 0 0 0 1 4 5 7 9 11 13 17 19 19 17 16 15 15 15 15 14 13 13 11 9 7 6 5 5 4 3 3 2 1 0 0 0 0 0 0 0 0 0 0
0 0 0 0 0 0 0 0 0 1 3 6 8 10 11 12 13 17 19 17 14 14 15 16 16 15 13 13 11 9 7 6 5 4 3 3 3 1 0 0 0 0 0 0 0 0 0 0 0
0 0 0 0 0 0 0 0 0 1 3 6 9 11 11 10 10 13 17 15 12 12 15 16 16 15 14 14 12 9 6 5 4 3 3 3 2 1 0 0 0 0 0 0 0 0 0 0 0
0 0 0 0 0 0 0 0 0 0 2 5 8 10 9 8 8 11 13 13 11 11 13 14 14 14 14 13 10 7 5 4 3 3 2 2 1 0 0 0 0 0 0 0 0 0 0 0 0
0 0 0 0 0 0 0 0 0 0 1 3 6 7 8 7 8 9 10 10 10 11 13 13 13 13 12 10 7 5 4 3 2 1 2 2 1 0 0 0 0 0 0 0 0 0 0 0 0
0 0 0 0 0 0 0 0 0 0 0 1 3 5 6 7 8 9 8 7 8 11 13 14 14 13 11 8 5 4 3 3 2 1 1 2 1 0 0 0 0 0 0 0 0 0 0 0 0
0 0 0 0 0 0 0 0 0 0 0 0 1 2 4 6 8 8 7 5 6 9 12 14 14 13 11 8 6 4 3 3 2 1 1 1 0 0 0 1 1 1 1 1 1 1 1 0 0
0 0 0 0 0 0 0 0 0 0 0 0 0 0 2 5 7 7 5 3 4 7 9 11 12 11 9 8 8 6 4 3 2 1 1 1 1 1 1 1 2 3 2 2 2 2 1 0 0
0 0 0 0 0 0 0 0 0 0 0 0 0 0 0 2 4 4 2 2 3 5 6 7 7 6 6 7 8 7 5 4 3 2 2 2 2 2 2 2 2 2 2 2 2 1 1 0 0
0 0 0 0 0 0 0 0 0 0 0 0 0 0 0 0 2 2 1 1 2 4 5 4 3 3 4 5 6 7 6 6 5 4 3 3 3 3 3 3 1 1 1 1 1 0 0 0 0
0 0 0 0 0 0 0 0 0 0 0 0 0 0 0 0 0 0 0 0 1 2 4 3 1 1 3 4 5 6 6 6 6 4 3 3 3 3 3 2 1 0 0 0 0 0 0 0 0
0 0 0 0 0 0 0 0 0 0 0 0 0 0 0 0 0 0 0 0 1 2 3 2 1 1 2 3 4 6 6 6 6 4 3 3 3 3 3 1 0 0 0 0 0 0 0 0 0
0 0 0 0 0 0 0 0 0 0 0 0 0 0 0 0 0 0 0 0 1 2 2 1 0 0 1 1 2 4 5 6 5 4 3 3 3 3 2 1 0 0 0 0 0 0 0 0 0
0 0 0 0 0 0 0 0 0 0 0 0 0 0 0 0 0 0 0 1 1 1 1 0 0 0 0 0 1 2 4 5 5 4 3 3 3 3 2 1 0 0 0 0 0 0 0 0 0
Wind_Speed
3 3 3 3 6 7 12 9 5 5 5 3 3 4 5 5 3 2 5 9 11 13 13 15 13 14 14 15 15 15 14 13 14 14 14 14 13 13 13 14 14 14 14 14 14 14 14 14 13
3 2 3 4 8 11 11 9 9 7 3 4 4 5 5 3 2 4 5 9 12 13 12 13 14 14 15 15 15 15 14 13 14 14 13 13 13 13 14 14 14 14 14 14 13 13 13 13 13
3 3 4 5 9 13 10 7 8 5 4 4 4 3 2 2 3 4 5 11 12 12 12 13 13 14 15 15 15 14 14 13 13 13 13 13 13 13 14 14 14 14 13 13 13 13 13 13 12
4 4 5 9 14 13 8 4 4 6 6 4 4 4 2 2 2 4 9 12 13 12 12 13 12 14 14 14 14 14 13 13 13 13 13 13 13 13 13 13 13 13 13 12 12 12 12 12 12
3 5 8 12 17 12 7 4 5 7 7 6 6 4 4 2 3 8 11 12 13 12 12 14 12 13 14 14 14 13 13 13 13 13 13 13 13 13 13 13 12 12 12 12 12 12 12 11 11
5 5 10 15 17 11 8 6 7 7 6 6 6 5 3 3 6 9 11 12 12 12 11 13 12 12 13 13 13 13 12 12 12 13 13 13 13 13 13 12 12 12 12 11 11 11 11 11 11
6 7 13 16 15 13 9 7 9 8 8 6 5 5 4 5 7 10 11 11 11 12 11 11 12 12 12 12 12 12 12 12 12 12 12 12 12 12 12 12 12 11 11 11 11 11 11 11 10
5 6 13 15 15 13 8 7 6 8 7 3 5 6 5 7 9 10 10 10 10 10 10 10 11 11 11 11 11 11 11 11 11 11 11 11 11 11 11 11 11 11 11 11 10 10 10 10 10
5 9 14 15 13 10 7 7 5 3 5 4 3 1 3 11 12 11 10 10 10 10 9 9 10 10 10 10 11 11 11 11 11 10 10 8 8 8 8 10 10 11 11 10 10 10 10 9 9
7 12 17 11 9 8 7 8 6 6 8 6 4 3 8 13 13 14 13 13 13 11 10 9 9 9 10 8 8 7 7 8 8 8 8 6 6 6 7 9 9 10 10 10 9 8 7 4 4
9 12 10 8 6 6 7 7 6 7 8 8 7 8 11 14 13 14 14 13 13 12 10 9 8 9 9 7 6 5 5 5 6 7 7 6 5 5 5 4 5 6 6 5 5 4 3 3 3
9 11 9 6 4 5 7 6 7 8 5 2 5 10 13 15 14 14 13 12 11 11 10 9 8 8 8 7 6 5 5 4 5 6 6 5 4 4 4 3 4 3 2 3 3 2 3 4 4
12 9 8 6 5 5 6 7 7 8 4 2 5 9 12 14 13 12 11 11 10 10 10 10 9 8 8 7 6 5 5 5 5 5 5 5 4 4 4 3 3 3 3 3 2 2 3 3 3
9 8 7 6 6 6 6 7 7 7 3 4 7 9 10 11 12 11 11 11 11 10 10 9 9 8 8 7 6 5 5 5 5 5 5 5 4 4 4 4 3 3 2 2 2 3 2 2 2
7 8 8 8 7 6 6 9 10 6 5 6 8 8 9 10 10 10 10 10 11 11 10 10 9 9 9 8 7 5 5 5 4 4 5 5 4 5 4 4 3 3 2 3 2 3 2 2 2
8 9 10 8 8 6 9 14 8 5 8 8 8 8 9 9 9 8 8 8 9 10 10 10 7 9 9 7 7 5 5 5 4 4 4 5 5 5 4 3 3 3 2 2 2 2 2 1 1
8 11 12 8 8 7 10 11 5 4 7 8 9 9 9 8 9 7 7 7 8 9 10 9 9 9 8 7 6 6 5 4 4 4 4 4 5 5 4 3 3 3 2 2 2 2 1 1 1
10 11 11 10 7 8 10 9 4 3 6 8 8 9 9 9 9 7 7 7 7 7 8 9 9 9 8 6 5 5 5 4 3 3 4 5 4 4 4 3 4 3 2 2 2 2 1 1 0
10 11 10 7 4 8 11 10 7 4 5 7 7 7 7 7 6 6 6 7 6 7 8 9 9 9 7 6 5 5 4 4 3 3 4 5 4 4 4 3 4 3 2 2 2 2 2 1 1
9 11 9 4 4 6 8 9 7 7 7 7 8 7 7 5 5 5 6 6 6 7 8 9 9 8 7 5 5 3 4 3 3 3 3 4 4 4 3 4 3 3 2 3 3 2 1 1 0
8 10 8 5 3 4 5 7 8 7 6 6 6 6 6 6 6 5 5 6 6 7 8 8 8 8 8 7 5 5 4 3 3 3 3 3 4 4 4 4 4 3 3 3 3 2 2 1 1
6 7 6 7 6 4 6 7 9 8 8 7 7 6 6 6 6 5 5 5 6 6 6 7 8 8 8 9 8 9 6 6 5 4 4 4 4 4 4 4 4 3 3 2 2 2 1 2 1
4 4 6 6 6 4 6 7 6 7 9 9 7 7 6 6 5 5 5 5 5 6 6 6 7 8 8 8 9 8 6 5 4 5 5 4 4 4 4 4 4 4 3 3 2 2 2 2 2
3 4 4 4 4 7 8 9 7 6 10 8 7 6 5 4 4 4 4 4 4 3 5 6 7 7 8 8 8 8 8 7 7 7 6 4 3 3 5 4 4 4 3 3 3 3 3 2 2
4 4 3 4 5 5 7 8 6 3 5 6 7 5 3 2 3 3 3 3 3 3 4 5 6 6 7 8 7 7 8 8 8 8 7 6 4 4 5 5 4 4 3 3 3 3 3 2 2
4 4 3 3 5 3 5 9 3 0 1 2 3 2 1 1 1 2 3 3 3 4 4 4 6 6 6 6 6 6 6 5 5 6 6 6 5 4 5 5 4 4 4 4 3 3 3 2 2
3 4 1 1 2 4 6 5 3 1 1 0 1 1 1 1 1 1 1 2 3 3 3 4 5 5 5 5 5 5 5 5 5 6 5 4 4 4 6 5 5 5 4 4 3 2 3 2 2
1 2 2 3 3 4 6 6 3 2 1 0 0 1 1 1 1 1 1 2 2 2 3 3 4 4 4 4 4 4 5 5 5 5 5 5 5 5 5 5 5 5 4 4 3 2 2 2 2
2 3 2 2 3 4 4 3 1 2 1 2 1 1 1 2 2 1 1 1 1 1 2 2 2 2 2 3 3 4 4 4 4 4 5 5 5 5 6 5 5 5 4 4 3 3 3 3 2
3 3 3 3 3 3 3 1 3 1 2 2 1 2 2 2 2 1 0 1 1 1 1 1 2 2 2 2 2 3 3 4 4 4 4 5 5 5 5 5 5 5 4 4 4 4 3 3 3
Wind_Direction
276 267 237 220 214 222 228 213 211 194 198 197 190 209 216 204 212 74 85 150 143 146 148 150 146 143 140 136 133 131 129 126 125 123 121 118 116 112 109 105 103 98 94 91 90 88 87 84 82
257 227 212 220 225 218 217 212 211 207 174 159 187 207 206 191 47 86 138 151 148 147 148 150 142 142 140 138 134 133 130 127 126 124 121 119 117 114 111 108 104 99 95 92 90 88 87 85 84
224 229 218 212 225 226 216 200 215 201 170 179 177 206 217 146 123 132 147 155 150 146 146 138 142 141 140 138 136 135 132 129 127 124 122 119 117 113 110 107 104 101 97 93 91 89 88 86 85
207 201 219 227 222 225 232 189 184 182 182 198 188 168 148 62 113 133 148 156 149 147 144 137 140 140 139 138 136 135 133 132 129 126 123 121 118 114 111 108 105 102 99 96 94 93 90 87 85
219 214 212 222 226 221 227 222 190 191 180 182 198 187 156 96 114 138 152 155 150 147 143 140 139 138 135 135 133 132 133 133 131 129 125 122 118 115 112 109 106 104 102 100 96 94 92 88 85
198 217 221 221 220 217 219 216 210 210 190 182 195 193 141 122 142 146 152 154 151 146 144 141 136 135 133 131 130 128 127 130 133 130 126 123 120 118 115 111 108 106 104 101 98 95 93 90 86
212 213 227 229 223 218 213 203 215 209 201 192 193 186 145 148 145 148 151 151 149 147 146 145 145 140 131 127 127 127 126 124 124 124 123 122 120 119 117 113 110 108 104 101 99 96 93 90 85
233 225 226 227 225 221 205 201 224 218 210 175 196 200 168 156 148 149 148 149 149 149 149 149 148 148 145 137 124 123 122 120 118 115 113 112 116 117 115 114 109 108 105 102 99 96 93 89 85
220 225 223 218 221 221 199 204 202 225 185 179 202 257 115 144 150 151 150 152 154 154 155 152 150 150 146 142 132 126 119 116 117 113 111 122 126 124 119 104 105 107 104 103 99 97 95 95 92
209 224 226 223 228 221 202 211 192 193 193 191 184 142 138 152 161 163 164 164 163 162 159 153 150 151 145 141 141 140 135 135 135 132 132 126 119 111 111 100 96 99 101 102 97 100 106 105 101
212 228 228 231 233 223 207 210 201 206 208 207 195 166 156 165 172 174 174 172 168 163 159 156 152 154 146 141 141 139 137 136 135 137 134 126 119 120 120 119 114 110 113 109 114 120 100 90 85
219 229 227 227 220 218 213 209 212 221 229 222 192 168 166 175 179 181 178 173 168 165 162 157 152 154 147 142 141 141 137 137 136 137 138 133 127 128 126 124 120 116 105 108 110 102 98 96 94
223 222 218 226 222 222 219 219 223 231 253 219 171 170 175 180 184 183 180 174 168 167 165 158 155 157 150 143 144 144 142 141 138 137 139 139 136 135 133 126 123 117 111 110 105 109 105 99 89
217 222 221 220 218 215 221 237 233 235 229 194 178 182 184 184 185 183 182 179 175 171 165 158 161 161 153 149 149 148 144 140 142 139 141 142 137 137 137 131 124 116 115 106 107 99 102 98 92
219 220 222 218 215 212 216 236 234 233 213 202 195 189 189 188 187 188 186 184 179 173 166 163 165 163 157 152 150 145 144 144 143 137 141 140 135 137 134 129 126 119 121 120 110 102 95 94 107
207 215 218 212 213 209 212 230 226 229 215 213 206 200 195 193 194 190 183 184 178 172 168 164 163 162 157 151 148 142 144 144 141 138 140 139 135 136 133 130 125 125 127 127 122 118 117 109 95
200 213 216 210 205 207 217 237 237 223 211 217 214 207 203 200 198 196 186 182 176 174 168 163 163 161 155 147 140 137 138 139 140 141 138 139 138 142 136 133 129 135 135 134 130 121 117 114 92
200 208 212 213 200 212 220 237 241 232 210 221 222 215 208 207 202 193 186 180 173 171 167 165 163 160 149 140 134 133 132 134 138 140 138 142 143 147 139 136 134 139 140 139 140 124 103 85 68
208 207 211 217 212 217 223 237 232 224 216 220 224 219 212 209 195 182 177 172 163 165 170 166 167 162 155 152 154 154 153 149 145 143 142 148 147 149 144 142 145 152 153 151 144 134 119 80 23
207 208 209 203 211 227 227 240 236 227 227 223 223 222 219 211 194 184 172 168 172 174 174 173 173 168 167 165 160 154 144 145 142 141 146 152 153 152 154 156 156 162 161 156 156 149 148 93 24
207 208 206 202 213 226 224 233 227 224 227 225 227 226 219 206 203 191 179 175 180 183 182 180 177 171 170 162 147 133 127 130 151 162 167 165 164 159 161 165 161 166 171 173 176 177 178 167 144
212 210 207 198 199 211 214 232 217 215 217 217 221 223 223 216 210 195 185 184 190 192 188 184 176 174 171 168 167 167 173 176 180 175 174 168 171 168 166 167 168 171 177 178 182 198 211 205 197
216 208 205 201 205 220 221 239 223 203 221 221 221 225 226 219 210 200 196 195 194 190 186 184 179 177 175 176 175 177 181 176 164 163 168 172 171 172 171 175 177 179 181 182 183 189 210 224 229
200 181 183 196 206 221 214 225 229 204 223 224 225 229 230 221 211 203 201 192 189 180 181 179 178 178 178 178 178 183 180 173 170 171 172 175 173 176 178 183 185 182 183 186 189 194 206 218 222
172 166 174 188 204 222 197 221 237 217 227 228 225 223 223 212 203 196 194 189 178 178 184 180 178 177 179 181 182 185 185 182 183 181 181 179 179 183 186 187 187 184 184 187 190 198 204 213 223
192 194 201 209 213 209 199 222 212 230 255 256 231 204 194 170 171 192 186 185 187 190 189 187 188 183 182 184 182 182 180 185 188 190 186 183 185 185 184 187 186 187 184 185 189 198 202 209 220
190 195 257 270 239 217 206 214 227 251 292 23 137 137 227 265 304 268 212 192 195 195 194 194 191 187 184 187 179 177 178 184 187 186 186 181 179 175 180 180 182 184 183 184 188 197 196 200 215
235 172 185 194 210 219 212 219 213 189 240 252 194 236 284 295 307 305 262 228 209 198 190 186 191 189 186 183 182 179 183 185 186 182 179 177 175 173 174 177 180 180 179 182 186 191 197 205 212
180 178 210 205 264 253 221 202 97 212 236 244 256 297 301 303 295 289 280 238 226 177 161 165 165 159 168 176 175 174 174 174 178 180 178 173 173 175 176 178 179 180 181 179 186 193 194 209 222
235 215 208 213 220 255 256 171 74 27 347 316 317 333 333 336 327 332 11 130 116 106 147 162 162 159 166 157 159 162 160 162 170 173 171 169 171 174 177 180 182 184 186 186 190 195 203 212 223